Regional Weather Roundup
Issued by NWS

Home | Current Version | Previous Version | Text Only | Print | Product List | Glossary On
Versions: 1 2 3 4 5 6 7 8 9 10 11 12 13 14 15 16 17 18 19 20 21 22 23 24 25 26 27 28 29 30 31 32 33 34 35 36 37 38 39 40 41 42 43 44 45 46 47 48 49 50
000
ASUS43 KLMK 261010
RWRKY
KENTUCKY REGIONAL WEATHER ROUNDUP
NATIONAL WEATHER SERVICE LOUISVILLE KY
600 AM EDT SAT JUL 26 2014

NOTE "FAIR" INDICATES FEW OR NO CLOUDS BELOW 12,000 FEET
WITH NO SIGNIFICANT WEATHER AND/OR OBSTRUCTIONS TO VISIBILITY.

KYZ001>023-026-027-061>063-070>075-261100-
WESTERN AND SOUTH CENTRAL KENTUCKY

CITY           SKY/WX    TMP DP  RH WIND       PRES   REMARKS
PADUCAH        CLEAR     68  63  84 S5        29.95S
HENDERSON      CLEAR     63  57  82 S6        29.96S
OWENSBORO      CLEAR     62  60  93 S6        29.98S
HOPKINSVILLE   CLEAR     66  65  99 SW2       30.00S
BOWLING GREEN  CLEAR     65  61  87 CALM      30.01S
GLASGOW        CLEAR     64  62  94 CALM      30.01R
$$

KYZ024-025-028>034-038-045-046-053-261100-
NORTH CENTRAL KENTUCKY

CITY           SKY/WX    TMP DP  RH WIND       PRES   REMARKS
LOUISVILLE/SDF MOCLDY    69  61  75 CALM      29.97S
LOUISVILLE/LOU MOCLDY    68  61  78 SE3       29.98S
FORT KNOX      CLEAR     62  60  93 S7        29.97F
$$

KYZ035>037-039>044-047>052-055>060-089>105-261100-
NORTHEAST KENTUCKY

CITY           SKY/WX    TMP DP  RH WIND       PRES   REMARKS
LEXINGTON      CLEAR     66  60  81 S5        30.01S
COVINGTON      CLOUDY    66  60  81 S6        29.97F
FRANKFORT      MOCLDY    64  60  87 CALM      29.99S
$$

KYZ054-064>069-076>088-106>120-261100-
SOUTHEAST KENTUCKY

CITY           SKY/WX    TMP DP  RH WIND       PRES   REMARKS
JACKSON        CLEAR     62  59  90 CALM      30.04S FOG
LONDON         PTCLDY    62  59  90 CALM      30.05R FOG
SOMERSET       PTCLDY    61  61 100 CALM      30.05R
MIDDLESBORO    FOG       62  62 100 CALM      30.07S VSB 1
MONTICELLO     SUNNY     62  61  97 CALM      30.05R FOG
$$



USA.gov is the U.S. government's official web portal to all federal, state and local government web resources and services.